sat.trackr.live / text

‹ back to catalog

STARLINK-36082

NORAD 66872 · 2025-281AA

PAYLOAD ACTIVE UNKNOWN

§ Identity

Operator
Country
US
Launch date
2025-12-02
Launch site
AFETR
Launch vehicle
Mass (kg)
RCS (m²)

Purposes: comms

External: N2YO · Heavens-Above · Gunter

§ Orbital elements

Epoch: 2026-09-19T11:42:08.202816Z

Period
94.27 min
Inclination
43.0039°
Eccentricity
0.0000226
Mean motion
15.27588201 rev/d
Perigee alt
482.9 km
Apogee alt
483.2 km
Semi-major
6,861.2 km
B*
3.1023e-4
RAAN
329.0683°
Arg perigee
80.0633°
Mean anomaly
280.0244°
Rev number
4,581

§ Raw data

STARLINK-360821 66872U 25281AA  26262.48759494  .00008287  00000+0  31023-3 0  99912 66872  43.0039 329.0683 0000226  80.0633 280.0244 15.27588201 45818

JSON: /api/v1/satellites/66872 · /tle

For live sub-satellite position, see the globe view (requires WebGL).

§ Visibility from observer

Set your observer location to see the next 7 days of passes ≥ 10°. The values pass through the URL so the page stays shareable.

No JS? Fill the form by hand. The geolocation button needs JavaScript.